TimeCDT,TemperatureF,Dew PointF,Humidity,Sea Level PressureIn,VisibilityMPH,Wind Direction,Wind SpeedMPH,Gust SpeedMPH,PrecipitationIn,Events,Conditions,WindDirDegrees,DateUTC
12:53 AM,62.1,60.1,93,30.05,10.0,Calm,Calm,-,N/A,,Clear,0,2012-10-03 05:53:00
1:53 AM,61.0,60.1,97,30.05,10.0,NNW,3.5,-,N/A,,Clear,340,2012-10-03 06:53:00
2:53 AM,61.0,60.1,97,30.05,10.0,NNW,3.5,-,N/A,,Scattered Clouds,330,2012-10-03 07:53:00
3:28 AM,60.8,59.0,94,30.06,10.0,NNW,3.5,-,N/A,,Mostly Cloudy,330,2012-10-03 08:28:00
3:53 AM,62.1,60.1,93,30.06,10.0,Calm,Calm,-,N/A,,Overcast,0,2012-10-03 08:53:00
4:04 AM,62.6,60.8,94,30.07,10.0,Calm,Calm,-,N/A,,Overcast,0,2012-10-03 09:04:00
4:53 AM,62.1,60.1,93,30.07,8.0,Calm,Calm,-,N/A,,Clear,0,2012-10-03 09:53:00
5:53 AM,61.0,59.0,93,30.11,6.0,Calm,Calm,-,N/A,,Mostly Cloudy,0,2012-10-03 10:53:00
6:53 AM,61.0,59.0,93,30.11,9.0,NE,3.5,-,N/A,,Partly Cloudy,40,2012-10-03 11:53:00
7:53 AM,64.9,61.0,87,30.13,10.0,Calm,Calm,-,N/A,,Clear,0,2012-10-03 12:53:00
8:53 AM,70.0,61.0,73,30.15,10.0,Calm,Calm,-,N/A,,Clear,0,2012-10-03 13:53:00
9:53 AM,71.1,61.0,70,30.17,10.0,Variable,3.5,-,N/A,,Partly Cloudy,0,2012-10-03 14:53:00
10:53 AM,73.0,59.0,61,30.17,10.0,Calm,Calm,-,N/A,,Clear,0,2012-10-03 15:53:00
11:53 AM,73.9,59.0,59,30.16,10.0,East,3.5,-,N/A,,Clear,100,2012-10-03 16:53:00
12:53 PM,75.9,59.0,56,30.14,10.0,NW,5.8,-,N/A,,Clear,320,2012-10-03 17:53:00
1:53 PM,75.9,60.1,58,30.13,10.0,NNW,5.8,-,N/A,,Clear,340,2012-10-03 18:53:00
2:53 PM,75.0,60.1,60,30.13,10.0,North,3.5,-,N/A,,Clear,360,2012-10-03 19:53:00
3:53 PM,75.0,60.1,60,30.13,10.0,NNW,5.8,-,N/A,,Clear,340,2012-10-03 20:53:00
4:53 PM,73.9,61.0,64,30.14,10.0,NNE,4.6,-,N/A,,Clear,30,2012-10-03 21:53:00
5:53 PM,72.0,62.1,71,30.15,10.0,NNE,4.6,-,N/A,,Clear,20,2012-10-03 22:53:00
6:53 PM,66.9,63.0,87,30.15,10.0,NE,3.5,-,N/A,,Clear,40,2012-10-03 23:53:00
8:53 PM,64.9,62.1,90,30.19,10.0,NNE,4.6,-,N/A,,Clear,30,2012-10-04 01:53:00
10:53 PM,64.9,62.1,90,30.20,10.0,NE,4.6,-,N/A,,Clear,40,2012-10-04 03:53:00
11:24 PM,64.4,62.6,94,30.21,10.0,NE,3.5,-,N/A,,Partly Cloudy,40,2012-10-04 04:24:00
11:53 PM,64.0,62.1,93,30.19,9.0,NE,3.5,-,N/A,,Partly Cloudy,40,2012-10-04 04:53:00